STARLINK-4028 (52677 NORAD) Tracking and Keplerian Element Data

This shows tracking and keplerian element data for the satellite.

Feedback or suggestion? Click here.




ElementValue
Catalog52677
NameSTARLINK-4028
Epoch Orbit894
Epoch Day193.25001157
Epoch Year2022
RAAN27.1219
Inclination53.2174
Eccentricity0.0001666
Argument of Perigee41.8217
Mean Anonmoly144.0105
Mean Motion15.53040309
Decay Rate-0.01062741
L11 52677U 22053X 22193.25001157 -.01062741 00000+0 -18409-1 0 9992
L22 52677 53.2174 27.1219 0001666 41.8217 144.0105 15.53040309 8941

Live tracking and technical data element details for STARLINK-4028 (NORAD 52677). STARLINK-4028 can be tracked NOW for your location showing map with azimuth and elevation plus other details from your city location.

Track the satellite on the map from your city or location and see movement details for azimuth, elevation, latitude, longitude, range, height, and movement on the map or in text.







IsCatalogInMostPopularTable: catalog: 52677, numindb: 6
Update: records affected: 1



GetName: 52677 STARLINK-4028

Hit Count: updated at: Sat, 13 Aug 2022 23:50:04 GMT